CW2157 Weather Reports


Display with metric or nautical units.
time (UTC)temp
F
wind
direction
speed
MPH
gust
MPH
rain 1hr
in
rain 24hr
in
rain mn
in
humidity
%
barometer
mb
20260510170705 78 183 7.0 10.0 0.00 0.00 0.00 48 1012.1
20260510170205 78 178 4.0 7.0 0.00 0.00 0.00 47 1012.3
20260510165705 78 165 4.0 9.0 0.00 0.00 0.00 50 1012.3
20260510165204 77 192 5.0 9.0 0.00 0.00 0.00 47 1012.4
20260510164704 77 178 5.0 8.0 0.00 0.00 0.00 48 1012.3
20260510164204 77 191 7.0 9.0 0.00 0.00 0.00 46 1012.3
20260510163704 77 203 6.0 9.0 0.00 0.00 0.00 48 1012.4
20260510163205 77 211 6.0 9.0 0.00 0.00 0.00 49 1012.5
20260510162704 77 186 4.0 9.0 0.00 0.00 0.00 51 1012.4
20260510162205 77 174 5.0 10.0 0.00 0.00 0.00 51 1012.5
20260510161704 76 182 5.0 12.0 0.00 0.00 0.00 57 1012.5
20260510161204 76 178 6.0 9.0 0.00 0.00 0.00 54 1012.4
20260510160704 76 198 5.0 8.0 0.00 0.00 0.00 57 1012.4
20260510155704 76 216 5.0 8.0 0.00 0.00 0.00 60 1012.4
20260510155204 75 172 5.0 7.0 0.00 0.00 0.00 58 1012.4
20260510154704 75 186 6.0 8.0 0.00 0.00 0.00 59 1012.5
20260510154205 75 202 6.0 8.0 0.00 0.00 0.00 58 1012.5
20260510153704 75 191 6.0 8.0 0.00 0.00 0.00 58 1012.5
20260510153205 75 203 6.0 8.0 0.00 0.00 0.00 61 1012.4
20260510152704 75 194 6.0 8.0 0.00 0.00 0.00 61 1012.4
20260510152204 75 212 3.0 8.0 0.00 0.00 0.00 60 1012.2
20260510151703 74 203 6.0 8.0 0.00 0.00 0.00 63 1012.1
20260510151204 74 205 6.0 9.0 0.00 0.00 0.00 62 1012.1
20260510150705 74 191 6.0 7.0 0.00 0.00 0.00 61 1012.1
20260510150205 74 208 6.0 9.0 0.00 0.00 0.00 62 1012.0
20260510145704 74 207 6.0 10.0 0.00 0.00 0.00 62 1012.0
20260510145205 74 199 6.0 8.0 0.00 0.00 0.00 63 1012.0
20260510144704 74 174 6.0 10.0 0.00 0.00 0.00 62 1011.9
20260510144204 74 201 7.0 10.0 0.00 0.00 0.00 64 1011.9
20260510142704 75 203 7.0 12.0 0.00 0.00 0.00 63 1011.9
20260510142203 74 174 5.0 9.0 0.00 0.00 0.00 59 1011.8
20260510141704 74 198 2.0 3.0 0.00 0.00 0.00 56 1011.6
20260510141203 74 194 2.0 3.0 0.00 0.00 0.00 60 1011.7
20260510140704 74 167 1.0 3.0 0.00 0.00 0.00 62 1011.7
20260510140205 74 191 2.0 3.0 0.00 0.00 0.00 59 1011.7
20260510135704 74 198 3.0 3.0 0.00 0.00 0.00 61 1011.7
20260510135204 74 178 0.0 2.0 0.00 0.00 0.00 60 1011.7
20260510134704 73 165 1.0 3.0 0.00 0.00 0.00 59 1011.7
20260510134204 73 241 1.0 3.0 0.00 0.00 0.00 66 1011.7
20260510133704 72 175 2.0 3.0 0.00 0.00 0.00 66 1011.7
20260510133204 72 206 2.0 3.0 0.00 0.00 0.00 70 1011.7
20260510132204 71 206 1.0 2.0 0.00 0.00 0.00 71 1011.8
20260510131704 70 165 0.0 3.0 0.00 0.00 0.00 70 1011.9
20260510131204 70 186 1.0 3.0 0.00 0.00 0.00 71 1011.8
20260510130704 69 206 2.0 3.0 0.00 0.00 0.00 71 1011.9
20260510130204 68 319 1.0 3.0 0.00 0.00 0.00 76 1011.8
20260510125704 68 322 0.0 1.0 0.00 0.00 0.00 74 1011.9
20260510125205 67 327 0.0 2.0 0.00 0.00 0.00 76 1012.0
20260510124704 66 328 1.0 2.0 0.00 0.00 0.00 77 1011.9
20260510124204 66 321 0.0 3.0 0.00 0.00 0.00 77 1011.9
20260510123704 66 302 0.0 3.0 0.00 0.00 0.00 77 1011.8
20260510123204 65 300 1.0 3.0 0.00 0.00 0.00 79 1011.9
20260510122704 65 329 1.0 3.0 0.00 0.00 0.00 80 1011.9
20260510122203 65 317 1.0 3.0 0.00 0.00 0.00 81 1011.7
20260510121704 65 17 1.0 5.0 0.00 0.00 0.00 82 1011.7
20260510120704 64 343 3.0 5.0 0.00 0.00 0.00 83 1011.5
20260510120204 63 344 1.0 3.0 0.00 0.00 0.00 85 1011.5
20260510115704 63 12 2.0 3.0 0.00 0.00 0.00 86 1011.4
20260510115204 62 293 0.0 0.0 0.00 0.00 0.00 88 1011.3
20260510114705 62 5 0.0 0.0 0.00 0.00 0.00 89 1011.2
20260510114204 61 5 0.0 0.0 0.00 0.00 0.00 93 1011.0
20260510113703 61 5 0.0 0.0 0.00 0.00 0.00 93 1011.0
20260510113204 60 5 0.0 0.0 0.00 0.00 0.00 93 1010.9
20260510112704 60 356 0.0 2.0 0.00 0.00 0.00 93 1010.9
20260510112204 59 8 0.0 1.0 0.00 0.00 0.00 93 1010.7
20260510111704 59 349 1.0 5.0 0.00 0.00 0.00 93 1010.7
20260510111204 59 12 1.0 3.0 0.00 0.00 0.00 93 1010.5
20260510110704 58 43 1.0 3.0 0.00 0.00 0.00 93 1010.5
20260510110204 58 53 1.0 3.0 0.00 0.00 0.00 92 1010.4
20260510105204 57 38 0.0 2.0 0.00 0.00 0.00 92 1010.3
20260510104204 57 52 1.0 3.0 0.00 0.00 0.00 92 1010.2
20260510103704 57 344 0.0 1.0 0.00 0.00 0.00 91 1010.1
20260510102704 57 326 0.0 2.0 0.00 0.00 0.00 91 1010.0
20260510102204 57 29 0.0 3.0 0.00 0.00 0.00 91 1010.1
20260510101704 56 49 0.0 3.0 0.00 0.00 0.00 91 1010.0
20260510101204 57 350 0.0 2.0 0.00 0.00 0.00 91 1010.1
20260510100704 57 337 1.0 3.0 0.00 0.00 0.00 91 1010.0
20260510100205 56 329 0.0 1.0 0.00 0.00 0.00 91 1009.9
20260510094705 57 337 1.0 3.0 0.00 0.00 0.00 91 1009.9
20260510094206 57 353 0.0 3.0 0.00 0.00 0.00 91 1009.9
20260510093705 57 339 1.0 3.0 0.00 0.00 0.00 91 1009.7
20260510093205 57 333 0.0 1.0 0.00 0.00 0.00 91 1009.8
20260510092706 57 290 0.0 2.0 0.00 0.00 0.00 91 1009.8
20260510091205 57 291 0.0 0.0 0.00 0.00 0.00 90 1009.5
20260510090705 57 291 0.0 0.0 0.00 0.00 0.00 90 1009.5
20260510090206 57 291 0.0 0.0 0.00 0.00 0.00 91 1009.4
20260510085706 57 245 0.0 0.0 0.00 0.00 0.00 91 1009.4
20260510085205 57 245 0.0 0.0 0.00 0.00 0.00 90 1009.3
20260510084205 57 245 0.0 0.0 0.00 0.00 0.00 90 1009.2
20260510083705 57 254 0.0 2.0 0.00 0.00 0.00 90 1009.1
20260510083205 58 310 0.0 0.0 0.00 0.00 0.00 90 1008.9
20260510082706 58 203 0.0 0.0 0.00 0.00 0.00 90 1009.0
20260510082206 58 203 0.0 0.0 0.00 0.00 0.00 91 1008.8
20260510081706 58 203 0.0 0.0 0.00 0.00 0.00 90 1008.9
20260510080706 58 203 0.0 0.0 0.00 0.00 0.00 90 1008.7
20260510080205 58 203 0.0 0.0 0.00 0.00 0.00 90 1008.6
20260510075706 58 203 0.0 0.0 0.00 0.00 0.00 90 1008.6
20260510075205 58 203 0.0 0.0 0.00 0.00 0.00 89 1008.6
20260510074706 58 203 0.0 2.0 0.00 0.00 0.00 89 1008.7
20260510074205 58 217 1.0 3.0 0.00 0.00 0.00 89 1008.6
20260510073705 58 199 0.0 1.0 0.00 0.00 0.00 89 1008.6
20260510073205 58 288 0.0 2.0 0.00 0.00 0.00 90 1008.6
20260510072705 58 257 0.0 5.0 0.00 0.00 0.00 90 1008.6
20260510072205 58 231 5.0 6.0 0.00 0.00 0.00 90 1008.6
20260510071706 58 228 5.0 7.0 0.00 0.00 0.00 90 1008.6
20260510071205 58 224 5.0 7.0 0.00 0.00 0.00 90 1008.6
20260510070705 58 217 3.0 6.0 0.00 0.00 0.00 89 1008.6
20260510070206 58 184 0.0 0.0 0.00 0.00 0.00 89 1008.5
20260510065706 58 190 0.0 0.0 0.00 0.00 0.00 89 1008.6
20260510065205 58 197 0.0 2.0 0.00 0.00 0.00 89 1008.5
20260510064706 58 213 1.0 3.0 0.00 0.00 0.00 89 1008.5
20260510064205 58 193 2.0 3.0 0.00 0.00 0.00 89 1008.4
20260510063706 58 208 1.0 3.0 0.00 0.00 0.00 89 1008.3
20260510063205 59 215 2.0 5.0 0.00 0.00 0.00 89 1008.3
20260510062206 58 222 1.0 3.0 0.00 0.00 0.00 89 1008.5
20260510061205 58 214 0.0 3.0 0.00 0.00 0.00 88 1008.5
20260510060705 58 198 0.0 3.0 0.00 0.00 0.00 88 1008.5
20260510055705 58 221 3.0 6.0 0.00 0.00 0.00 88 1008.4
20260510055205 58 212 3.0 6.0 0.00 0.00 0.00 88 1008.5
20260510054705 58 210 3.0 5.0 0.00 0.00 0.00 87 1008.4
20260510054206 58 201 2.0 5.0 0.00 0.00 0.00 87 1008.5
20260510053205 58 204 1.0 3.0 0.00 0.00 0.00 85 1008.5
20260510052706 59 90 0.0 0.0 0.00 0.00 0.00 85 1008.6
20260510052205 59 34 0.0 0.0 0.00 0.00 0.00 85 1008.6
20260510051705 59 34 0.0 0.0 0.00 0.00 0.00 85 1008.6
20260510051206 59 34 0.0 0.0 0.00 0.00 0.00 85 1008.5
20260510050705 59 34 0.0 0.0 0.00 0.00 0.00 83 1008.6
20260510050205 59 34 0.0 0.0 0.00 0.00 0.00 83 1008.6
20260510045705 59 34 0.0 0.0 0.00 0.00 0.00 82 1008.6
20260510044705 60 20 0.0 0.0 0.00 0.00 0.00 81 1008.6
20260510043205 60 356 0.0 0.0 0.00 0.00 0.00 81 1008.6
20260510042706 60 356 0.0 0.0 0.00 0.00 0.00 80 1008.6
20260510042205 61 356 0.0 1.0 0.00 0.00 0.00 79 1008.6
20260510041206 61 158 0.0 2.0 0.00 0.00 0.00 78 1008.6
20260510040705 62 171 0.0 3.0 0.00 0.00 0.00 78 1008.6
20260510040205 62 173 1.0 3.0 0.00 0.00 0.00 78 1008.5
20260510035705 62 183 1.0 3.0 0.00 0.00 0.00 78 1008.6
20260510035206 62 178 3.0 5.0 0.00 0.00 0.00 79 1008.5
20260510034705 62 173 2.0 5.0 0.00 0.00 0.00 80 1008.5
20260510033705 62 179 1.0 3.0 0.00 0.00 0.00 81 1008.5
20260510033206 61 169 2.0 5.0 0.00 0.00 0.00 82 1008.4
20260510032706 61 166 1.0 5.0 0.00 0.00 0.00 81 1008.4
20260510031206 62 160 2.0 3.0 0.00 0.00 0.00 77 1008.4
20260510030705 62 142 0.0 2.0 0.00 0.00 0.00 77 1008.2
20260510030205 62 148 0.0 0.0 0.00 0.00 0.00 77 1008.2
20260510025706 62 150 0.0 0.0 0.00 0.00 0.00 76 1008.2
20260510025206 63 144 0.0 0.0 0.00 0.00 0.00 77 1008.2
20260510024205 63 143 0.0 0.0 0.00 0.00 0.00 78 1008.3
20260510023705 63 143 0.0 0.0 0.00 0.00 0.00 77 1008.2
20260510023205 63 143 0.0 0.0 0.00 0.00 0.00 76 1008.2
20260510022705 63 143 0.0 0.0 0.00 0.00 0.00 76 1008.1
20260510022205 63 136 0.0 0.0 0.00 0.00 0.00 77 1008.0
20260510021706 64 136 0.0 0.0 0.00 0.00 0.00 77 1008.0
20260510021205 64 134 0.0 0.0 0.00 0.00 0.00 77 1008.0
20260510020705 64 143 0.0 0.0 0.00 0.00 0.00 77 1007.9
20260510020206 64 141 0.0 0.0 0.00 0.00 0.00 76 1008.1
20260510015706 64 121 0.0 0.0 0.00 0.00 0.00 76 1007.9
20260510015205 64 130 0.0 2.0 0.00 0.00 0.00 76 1007.9
20260510014706 65 134 0.0 1.0 0.00 0.00 0.00 75 1007.9
20260510014205 65 134 0.0 1.0 0.00 0.00 0.00 72 1007.9
20260510013705 65 140 0.0 2.0 0.00 0.00 0.00 73 1007.9
20260510013205 65 130 0.0 1.0 0.00 0.00 0.00 71 1007.9
20260510012205 65 130 0.0 1.0 0.00 0.00 0.00 72 1007.8
20260510011205 66 151 1.0 3.0 0.00 0.00 0.00 70 1007.7
20260510005706 66 131 0.0 2.0 0.00 0.00 0.00 70 1007.8
20260510005205 66 128 1.0 3.0 0.00 0.00 0.00 70 1007.7
20260510004706 67 140 1.0 3.0 0.00 0.00 0.00 70 1007.7
20260510003706 67 138 1.0 3.0 0.00 0.00 0.00 71 1007.6
20260510002705 67 126 2.0 6.0 0.00 0.00 0.00 71 1007.4
20260510002205 67 152 3.0 7.0 0.00 0.00 0.00 70 1007.4
20260510001705 67 153 1.0 5.0 0.00 0.00 0.00 71 1007.4
20260510001205 67 148 2.0 3.0 0.00 0.00 0.00 71 1007.4
20260510000705 67 136 1.0 3.0 0.00 0.00 0.00 71 1007.4
20260510000205 67 138 2.0 3.0 0.00 0.00 0.00 69 1007.4
20260509235706 68 132 0.0 2.0 0.00 0.00 0.00 69 1007.4
20260509235205 68 154 1.0 3.0 0.00 0.00 0.00 68 1007.3
20260509234705 68 160 1.0 3.0 0.00 0.00 0.00 66 1007.3
20260509234205 68 172 1.0 5.0 0.00 0.00 0.00 66 1007.3
20260509233705 68 183 3.0 5.0 0.00 0.00 0.00 65 1007.2
20260509233205 69 187 5.0 7.0 0.00 0.00 0.00 65 1007.1
20260509232705 69 205 5.0 8.0 0.00 0.00 0.00 64 1007.0
20260509231705 69 182 4.0 6.0 0.00 0.00 0.00 63 1007.0
20260509231205 69 178 5.0 9.0 0.00 0.00 0.00 62 1007.0
20260509230705 70 193 5.0 8.0 0.00 0.00 0.00 62 1007.0
20260509230205 70 169 5.0 8.0 0.00 0.00 0.00 61 1007.0
20260509225705 70 167 4.0 9.0 0.00 0.00 0.00 61 1007.1
20260509225205 70 186 3.0 9.0 0.00 0.00 0.00 61 1007.0
20260509224205 71 187 4.0 6.0 0.00 0.00 0.00 60 1007.1
20260509223705 71 185 5.0 8.0 0.00 0.00 0.00 60 1007.3
20260509223204 71 192 5.0 8.0 0.00 0.00 0.00 60 1007.3
20260509221705 72 202 3.0 6.0 0.00 0.00 0.00 59 1007.1
20260509221205 72 171 4.0 8.0 0.00 0.00 0.00 58 1007.1
20260509220205 73 197 5.0 10.0 0.00 0.00 0.00 57 1007.1
20260509215705 73 174 5.0 12.0 0.00 0.00 0.00 56 1007.1
20260509215205 73 188 5.0 12.0 0.00 0.00 0.00 55 1007.0
20260509214705 74 212 7.0 12.0 0.00 0.00 0.00 53 1007.0
20260509214205 74 205 8.0 10.0 0.00 0.00 0.00 54 1006.9
20260509213705 74 215 7.0 10.0 0.00 0.00 0.00 53 1007.0
20260509212205 74 188 8.0 15.0 0.00 0.00 0.00 54 1006.8
20260509211705 74 186 9.0 14.0 0.00 0.00 0.00 53 1006.7
20260509211205 74 185 9.0 13.0 0.00 0.00 0.00 53 1006.6
20260509210705 74 211 7.0 15.0 0.00 0.00 0.00 56 1006.8
20260509210205 74 218 7.0 12.0 0.00 0.00 0.00 57 1006.8
20260509205705 74 182 8.0 16.0 0.00 0.00 0.00 58 1006.9
20260509205205 74 190 9.0 14.0 0.00 0.00 0.00 56 1006.9
20260509204705 74 201 7.0 9.0 0.00 0.00 0.00 56 1006.9
20260509204205 74 210 7.0 10.0 0.00 0.00 0.00 58 1006.8
20260509203705 74 193 7.0 13.0 0.00 0.00 0.00 58 1006.9
20260509203205 74 225 8.0 13.0 0.00 0.00 0.00 57 1006.9
20260509202705 73 207 7.0 12.0 0.00 0.00 0.00 58 1007.0
20260509201705 73 150 8.0 14.0 0.00 0.00 0.00 60 1007.0
20260509201205 73 179 7.0 14.0 0.00 0.00 0.00 60 1007.0
20260509200704 72 151 7.0 12.0 0.00 0.00 0.00 60 1007.1
20260509200205 72 166 6.0 13.0 0.00 0.00 0.00 63 1007.2
20260509195705 71 204 7.0 13.0 0.00 0.00 0.00 64 1007.3
20260509195206 71 175 7.0 12.0 0.00 0.00 0.00 64 1007.3
20260509194705 71 176 5.0 9.0 0.00 0.00 0.00 63 1007.3
20260509194205 70 153 7.0 14.0 0.00 0.00 0.00 63 1007.4
20260509193705 70 167 6.0 12.0 0.00 0.00 0.00 65 1007.5
20260509193205 70 180 5.0 10.0 0.00 0.00 0.00 63 1007.6
20260509192705 70 195 6.0 10.0 0.00 0.00 0.00 63 1007.6
20260509192205 70 168 5.0 8.0 0.00 0.00 0.00 63 1007.7
20260509191705 70 183 5.0 10.0 0.00 0.00 0.00 61 1008.0
20260509191205 70 210 6.0 10.0 0.00 0.00 0.00 62 1008.2
20260509190705 70 193 5.0 8.0 0.00 0.00 0.00 61 1008.2
20260509190205 71 187 6.0 14.0 0.00 0.00 0.00 61 1008.3
20260509185705 71 242 7.0 14.0 0.00 0.00 0.00 61 1008.4
20260509185205 71 214 8.0 12.0 0.00 0.00 0.00 62 1008.3
20260509184705 71 199 12.0 16.0 0.00 0.00 0.00 60 1008.3
20260509184205 71 190 10.0 14.0 0.00 0.00 0.00 62 1008.3
20260509183705 71 208 7.0 13.0 0.00 0.00 0.00 62 1008.4
20260509182705 70 195 9.0 14.0 0.00 0.00 0.00 62 1008.5
20260509182205 70 214 11.0 16.0 0.00 0.00 0.00 62 1008.5
20260509181705 70 184 8.0 14.0 0.00 0.00 0.00 62 1008.6
20260509181205 70 199 12.0 17.0 0.00 0.00 0.00 63 1008.8
20260509180705 70 227 10.0 15.0 0.00 0.00 0.00 64 1008.8
20260509180205 70 204 10.0 15.0 0.00 0.00 0.00 63 1008.9
20260509175705 70 194 9.0 12.0 0.00 0.00 0.00 63 1009.0
20260509175205 70 220 9.0 15.0 0.00 0.00 0.00 62 1008.9
20260509174705 70 198 9.0 12.0 0.00 0.00 0.00 61 1009.0
20260509174205 70 181 9.0 15.0 0.00 0.00 0.00 61 1009.0
20260509173705 70 198 8.0 16.0 0.00 0.00 0.00 62 1008.9
20260509173205 70 205 11.0 20.0 0.00 0.00 0.00 62 1009.0
20260509172204 70 224 12.0 17.0 0.00 0.00 0.00 60 1008.9
20260509171705 70 205 12.0 17.0 0.00 0.00 0.00 60 1009.0
20260509171205 70 222 12.0 17.0 0.00 0.00 0.00 60 1009.0